Date,TemperatureHighF,TemperatureAvgF,TemperatureLowF,DewpointHighF,DewpointAvgF,DewpointLowF,HumidityHigh,HumidityAvg,HumidityLow,PressureMaxIn,PressureMinIn,WindSpeedMaxMPH,WindSpeedAvgMPH,GustSpeedMaxMPH,PrecipitationSumIn
2013-3-1,33.1,19.8,12.4,16.5,8.4,1.8,72,61,46,30.22,30.04,18,6,18,0.00
2013-3-2,49.8,27.0,17.6,25.2,13.2,8.8,74,58,29,30.23,30.07,21,4,21,0.11
2013-3-3,42.6,30.2,20.1,18.1,12.4,5.4,74,49,29,30.08,29.79,25,5,25,0.00
2013-3-4,33.1,18.1,-4.5,20.7,8.0,-17.3,77,64,47,29.99,29.73,18,3,18,0.01
2013-3-5,48.6,14.2,-7.2,10.9,-5.0,-19.8,69,45,18,30.06,29.97,14,3,14,0.06
2013-3-6,51.8,27.0,11.8,12.2,3.0,-1.7,58,38,18,30.04,29.91,17,4,17,0.01
2013-3-7,50.4,30.9,19.8,30.6,3.6,-4.9,71,33,18,30.00,29.92,22,4,22,0.00
2013-3-8,42.8,27.5,17.8,18.1,11.7,3.2,73,52,27,29.98,29.69,17,3,17,0.01
2013-3-9,30.7,21.1,9.0,20.1,12.2,-1.7,75,68,61,29.88,29.65,21,4,21,0.00
2013-3-10,37.2,14.4,4.6,12.9,1.5,-5.4,66,57,32,30.03,29.87,23,6,23,0.02
2013-3-11,35.2,20.2,7.3,16.7,7.2,-3.3,70,57,41,30.02,29.94,24,4,24,0.00
2013-3-12,45.7,26.0,18.3,20.5,11.9,9.0,73,56,30,30.15,29.98,24,6,24,0.05
2013-3-13,51.1,30.8,23.0,20.5,13.4,9.3,62,49,28,30.25,30.13,30,5,30,0.00
2013-3-14,53.2,31.7,20.1,17.8,10.1,3.7,64,44,18,30.27,30.21,16,4,16,0.00
2013-3-15,54.1,35.0,23.4,18.9,13.0,7.9,61,43,18,30.22,30.03,20,4,20,0.00
2013-3-16,38.7,29.0,21.2,26.1,19.6,13.1,80,68,52,30.03,29.88,14,2,14,0.05
2013-3-17,35.4,22.5,15.3,21.9,12.2,-1.1,79,65,41,29.89,29.67,19,3,19,0.00
2013-3-18,26.8,18.2,11.3,8.6,4.8,0.5,65,56,39,29.89,29.77,15,3,15,0.00
2013-3-19,38.7,20.9,6.1,36.3,-5.3,-15.5,97,33,18,30.11,29.88,21,5,21,0.01
2013-3-20,43.2,22.2,4.5,16.7,2.9,-14.1,69,44,22,30.09,29.86,27,5,27,0.02
2013-3-21,34.5,22.2,12.7,23.5,12.7,3.6,76,67,54,29.86,29.69,15,3,15,0.00
2013-3-22,37.4,17.6,1.4,7.5,0.0,-8.9,69,49,19,29.78,29.63,15,3,15,0.02
2013-3-23,20.5,10.2,3.6,2.7,-3.1,-8.7,65,55,34,29.83,29.62,12,2,12,0.00
2013-3-24,16.7,3.2,-7.6,-3.5,-11.8,-21.3,56,49,32,29.86,29.77,17,2,17,0.00
2013-3-25,39.2,7.3,-9.2,7.3,-11.5,-24.0,58,43,20,29.97,29.85,18,3,18,0.00
2013-3-26,48.2,21.1,-0.4,18.5,4.9,-14.3,73,51,22,29.96,29.90,21,3,21,0.04
2013-3-27,50.5,28.7,19.2,21.4,14.5,9.0,76,58,25,30.06,29.93,15,2,15,0.07
2013-3-28,51.8,29.3,15.8,21.4,12.8,5.2,65,52,22,30.12,30.03,10,2,10,0.01
2013-3-29,51.1,30.9,19.6,26.4,17.9,10.4,76,60,27,30.15,30.09,23,3,23,0.00
2013-3-30,50.7,31.6,21.0,22.6,19.0,12.7,80,63,24,30.15,30.07,19,4,19,0.05
2013-3-31,53.4,29.1,11.7,19.2,9.5,3.7,76,50,18,30.12,30.04,16,4,16,0.05